Regional Weather Roundup
Issued by NWS

Home | Current Version | Previous Version | Graphics & Text | Print | Product List | Glossary On
Versions: 1 2 3 4 5 6 7 8 9 10 11 12 13 14 15 16 17 18 19 20 21 22 23 24 25 26 27 28 29 30 31 32 33 34 35 36 37 38 39 40 41 42 43 44 45 46 47 48 49 50
000
ASUS43 KLMK 221910
RWRKY
KENTUCKY REGIONAL WEATHER ROUNDUP
NATIONAL WEATHER SERVICE LOUISVILLE KY
200 PM EST WED NOV 22 2017

NOTE "FAIR" INDICATES FEW OR NO CLOUDS BELOW 12,000 FEET
WITH NO SIGNIFICANT WEATHER AND/OR OBSTRUCTIONS TO VISIBILITY.

KYZ001>023-026-027-061>063-070>075-222000-
WESTERN AND SOUTH CENTRAL KENTUCKY

CITY           SKY/WX    TMP DP  RH WIND       PRES   REMARKS
PADUCAH        SUNNY     44  21  40 NE6       30.29F
HENDERSON      SUNNY     40  23  50 N7        30.32F
OWENSBORO      SUNNY     41  22  46 NW6       30.31F
HOPKINSVILLE   SUNNY     43  24  47 NW6       30.27F
BOWLING GREEN  SUNNY     45  25  45 N7        30.28F
GLASGOW        SUNNY     45  25  45 NE8       30.25F
$$

KYZ024-025-028>034-038-045-046-053-222000-
NORTH CENTRAL KENTUCKY

CITY           SKY/WX    TMP DP  RH WIND       PRES   REMARKS
LOUISVILLE/SDF MOSUNNY   43  24  47 VRB7      30.29S
LOUISVILLE/LOU SUNNY     42  25  50 N8        30.29F
FORT KNOX      SUNNY     41  22  46 NW9       30.25F
$$

KYZ035>037-039>044-047>052-055>060-089>105-222000-
NORTHEAST KENTUCKY

CITY           SKY/WX    TMP DP  RH WIND       PRES   REMARKS
LEXINGTON      SUNNY     43  25  49 N8        30.25F
COVINGTON      PTSUNNY   40  27  59 N8        30.27F WCI  34
FRANKFORT      SUNNY     43  22  43 N6        30.25F
$$

KYZ054-064>069-076>088-106>120-222000-
SOUTHEAST KENTUCKY

CITY           SKY/WX    TMP DP  RH WIND       PRES   REMARKS
JACKSON        SUNNY     45  25  45 NE3       30.20F
LONDON         SUNNY     44  25  47 NW6       30.21F
SOMERSET       SUNNY     43  27  52 NE6       30.25S
MIDDLESBORO    SUNNY     48  29  47 N9        30.17F
MONTICELLO     CLEAR     44  27  51 NW7G21    30.25F
$$




USA.gov is the U.S. government's official web portal to all federal, state and local government web resources and services.